Weather in Deauville

France     49°21′29″N   0°04′35″E
temp.,
°C
wind,
m/s
gust,
m/s
humid.,
%
clouds,
%
prec.,
mm/h
press.,
hPa
HPBL,
m
15 june, tue
tue1523:00+15wnw2286100 0.0 102111
02:00+14wsw2293100 0.0 102129
05:00+14w2397100 0.0 102045
08:00+16wnw3395100 0.0 1021167
11:00+18nw338598 0.0 1021314
14:00+19nw438070 0.0 1021371
17:00+19nw337734 0.0 1019372
20:00+17n338633 0.1 1018144
16 june, wed
wed1623:00+15nw119417 0.0 101811
02:00+15s11903 0.0 101613
05:00+15sse11900 0.0 101511
08:00+18sse22880 0.0 101390
11:00+24s23680 0.0 1012506
14:00+26n135720 0.0 10111460
17:00+25nne346132 0.0 1009893
20:00+21w5485100 1.8 1008182
17 june, thu
thu1723:00+17ne5898100 4.9 1009191
02:00+16sse3496100 5.1 100983
05:00+16s2297100 2.4 100869
08:00+17ssw3697100 3.3 1009233
11:00+16wnw4598100 0.4 1011246
14:00+16nw5692100 0.4 1013398
17:00+17nw5584100 0.0 1013435
20:00+15nw3591100 0.1 1013237
18 june, fri
fri1823:00+15n3695100 0.4 1013221
02:00+16n3698100 0.8 1011245
05:00+16ne2498100 0.1 1010137
08:00+17ne129893 0.7 1009117
11:00+17ene1298100 3.3 1009121
14:00+17nw4399100 4.8 1009221
17:00+15wnw7898100 2.7 1012506
20:00+13wnw6994100 5.2 1015665
19 june, sat
sat1923:00+14wnw3593100 0.1 1017352
02:00+13nw349092 0.2 1018274
05:00+14ne118682 0.0 1017148
08:00+14ene3388100 0.0 1018252
11:00+17ene2376100 0.0 1017603
14:00+20e456839 0.0 1015549
17:00+22ese676493 0.0 1013930
20:00+21ene4777100 0.1 1010567